Time,TemperatureF,DewpointF,PressureIn,WindDirection,WindDirectionDegrees,WindSpeedMPH,WindSpeedGustMPH,Humidity,HourlyPrecipIn,Conditions,Clouds,dailyrainin,SoftwareType,DateUTC
2013-11-14 00:01:00,51.3,51.0,30.36,SSW,202,6.8,7.0,100,0.00,,,0.00,Rainwise IP-100,2013-11-14 08:01:00,
2013-11-14 00:06:00,51.3,51.0,30.36,SSW,202,1.4,8.0,100,0.00,,,0.00,Rainwise IP-100,2013-11-14 08:06:00,
2013-11-14 00:11:00,51.4,51.0,30.36,SW,225,7.5,11.0,100,0.00,,,0.00,Rainwise IP-100,2013-11-14 08:11:00,
2013-11-14 00:16:00,51.5,52.0,30.35,SW,225,4.9,10.0,100,0.00,,,0.00,Rainwise IP-100,2013-11-14 08:16:00,
2013-11-14 00:21:00,51.4,51.0,30.36,South,180,0.0,7.0,100,0.00,,,0.00,Rainwise IP-100,2013-11-14 08:21:00,
2013-11-14 00:26:00,51.5,52.0,30.36,SW,225,5.1,9.0,100,0.00,,,0.00,Rainwise IP-100,2013-11-14 08:26:00,
2013-11-14 00:31:00,51.5,52.0,30.36,SSW,202,3.0,10.0,100,0.00,,,0.00,Rainwise IP-100,2013-11-14 08:31:00,
2013-11-14 00:36:00,51.5,52.0,30.36,WSW,247,5.8,11.0,100,0.00,,,0.00,Rainwise IP-100,2013-11-14 08:36:00,
2013-11-14 00:41:00,51.5,52.0,30.36,WSW,247,1.2,10.0,100,0.00,,,0.00,Rainwise IP-100,2013-11-14 08:41:00,
2013-11-14 00:46:00,51.6,52.0,30.36,WSW,247,1.9,7.0,100,0.00,,,0.00,Rainwise IP-100,2013-11-14 08:46:00,
2013-11-14 00:51:00,51.5,52.0,30.36,SW,225,7.7,7.7,100,0.00,,,0.00,Rainwise IP-100,2013-11-14 08:51:00,
2013-11-14 00:56:00,51.3,51.0,30.36,SW,225,8.2,9.0,100,0.00,,,0.00,Rainwise IP-100,2013-11-14 08:56:00,
2013-11-14 01:01:00,51.1,51.0,30.36,WSW,247,2.8,11.0,100,0.00,,,0.00,Rainwise IP-100,2013-11-14 09:01:00,
2013-11-14 01:06:00,50.9,51.0,30.35,SW,225,3.3,11.0,100,0.00,,,0.00,Rainwise IP-100,2013-11-14 09:06:00,
2013-11-14 01:11:00,50.9,51.0,30.35,SW,225,6.8,7.0,100,0.00,,,0.00,Rainwise IP-100,2013-11-14 09:11:00,
2013-11-14 01:16:00,50.8,50.0,30.36,SSE,157,1.2,8.0,100,0.00,,,0.00,Rainwise IP-100,2013-11-14 09:16:00,
2013-11-14 01:21:00,50.8,50.0,30.36,WNW,292,4.0,10.0,100,0.00,,,0.00,Rainwise IP-100,2013-11-14 09:21:00,
2013-11-14 01:26:00,50.7,50.0,30.36,SSW,202,2.8,10.0,100,0.00,,,0.00,Rainwise IP-100,2013-11-14 09:26:00,
2013-11-14 01:31:00,50.7,50.0,30.36,SW,225,8.4,10.0,100,0.00,,,0.00,Rainwise IP-100,2013-11-14 09:31:00,
2013-11-14 01:36:00,50.7,50.0,30.36,West,270,6.5,10.0,100,0.00,,,0.00,Rainwise IP-100,2013-11-14 09:36:00,
2013-11-14 01:41:00,50.7,50.0,30.35,WSW,247,3.3,8.0,100,0.00,,,0.00,Rainwise IP-100,2013-11-14 09:41:00,
2013-11-14 01:46:00,50.8,50.0,30.36,WNW,292,2.3,11.0,100,0.00,,,0.00,Rainwise IP-100,2013-11-14 09:46:00,
2013-11-14 01:51:00,50.8,50.0,30.35,WNW,292,1.6,10.0,100,0.00,,,0.00,Rainwise IP-100,2013-11-14 09:51:00,
2013-11-14 01:56:00,50.8,50.0,30.35,West,270,1.2,8.0,100,0.00,,,0.00,Rainwise IP-100,2013-11-14 09:56:00,
2013-11-14 02:01:00,50.8,50.0,30.35,WSW,247,5.8,11.0,100,0.00,,,0.00,Rainwise IP-100,2013-11-14 10:01:00,
2013-11-14 02:06:00,50.8,50.0,30.35,SSW,202,2.6,10.0,100,0.00,,,0.00,Rainwise IP-100,2013-11-14 10:06:00,
2013-11-14 02:11:00,50.8,50.0,30.35,SSW,202,2.3,8.0,100,0.00,,,0.00,Rainwise IP-100,2013-11-14 10:11:00,
2013-11-14 02:16:00,50.8,50.0,30.35,SW,225,0.0,11.0,100,0.00,,,0.00,Rainwise IP-100,2013-11-14 10:16:00,
2013-11-14 02:21:00,50.8,50.0,30.34,WNW,292,4.2,12.0,100,0.00,,,0.00,Rainwise IP-100,2013-11-14 10:21:00,
2013-11-14 02:26:00,50.9,51.0,30.34,SSW,202,2.8,8.0,100,0.00,,,0.00,Rainwise IP-100,2013-11-14 10:26:00,
2013-11-14 02:31:00,51.0,51.0,30.34,NNE,22,0.0,7.0,100,0.00,,,0.00,Rainwise IP-100,2013-11-14 10:31:00,
2013-11-14 02:36:00,51.0,51.0,30.34,SSE,157,2.1,9.0,100,0.00,,,0.00,Rainwise IP-100,2013-11-14 10:36:00,
2013-11-14 02:41:00,51.0,51.0,30.34,SSW,202,5.4,13.0,100,0.00,,,0.00,Rainwise IP-100,2013-11-14 10:41:00,
2013-11-14 02:46:00,51.0,51.0,30.33,SSW,202,7.0,10.0,100,0.00,,,0.00,Rainwise IP-100,2013-11-14 10:46:00,
2013-11-14 02:51:00,50.9,51.0,30.34,SE,135,1.6,12.0,100,0.00,,,0.00,Rainwise IP-100,2013-11-14 10:51:00,
2013-11-14 02:56:00,50.9,51.0,30.34,NW,315,0.0,10.0,100,0.00,,,0.00,Rainwise IP-100,2013-11-14 10:56:00,
2013-11-14 03:01:00,51.0,51.0,30.34,WNW,292,3.5,10.0,100,0.00,,,0.00,Rainwise IP-100,2013-11-14 11:01:00,
2013-11-14 03:06:00,51.0,51.0,30.33,SSW,202,7.9,10.0,100,0.00,,,0.00,Rainwise IP-100,2013-11-14 11:06:00,
2013-11-14 03:11:00,51.0,51.0,30.32,WSW,247,4.9,7.0,100,0.00,,,0.00,Rainwise IP-100,2013-11-14 11:11:00,
2013-11-14 03:16:00,51.0,51.0,30.32,WSW,247,2.8,7.0,100,0.00,,,0.00,Rainwise IP-100,2013-11-14 11:16:00,
2013-11-14 03:21:00,51.0,51.0,30.33,SW,225,5.8,11.0,100,0.00,,,0.00,Rainwise IP-100,2013-11-14 11:21:00,
2013-11-14 03:26:00,51.0,51.0,30.33,WSW,247,2.8,9.0,100,0.00,,,0.00,Rainwise IP-100,2013-11-14 11:26:00,
2013-11-14 03:31:00,50.9,51.0,30.33,SW,225,2.6,10.0,100,0.06,,,0.01,Rainwise IP-100,2013-11-14 11:31:00,
2013-11-14 03:36:00,50.9,51.0,30.33,SW,225,4.2,11.0,100,0.06,,,0.01,Rainwise IP-100,2013-11-14 11:36:00,
2013-11-14 03:41:00,50.9,51.0,30.32,WSW,247,0.0,11.0,100,0.00,,,0.01,Rainwise IP-100,2013-11-14 11:41:00,
2013-11-14 03:46:00,51.0,51.0,30.32,SSW,202,1.4,11.0,100,0.00,,,0.01,Rainwise IP-100,2013-11-14 11:46:00,
2013-11-14 03:51:00,51.1,51.0,30.32,WSW,247,2.8,6.0,100,0.00,,,0.01,Rainwise IP-100,2013-11-14 11:51:00,
2013-11-14 03:56:00,51.2,51.0,30.32,WNW,292,2.6,8.0,100,0.00,,,0.01,Rainwise IP-100,2013-11-14 11:56:00,
2013-11-14 04:01:00,51.2,51.0,30.31,WNW,292,2.8,8.0,100,0.00,,,0.01,Rainwise IP-100,2013-11-14 12:01:00,
2013-11-14 04:06:00,51.2,51.0,30.32,SW,225,3.0,11.0,100,0.00,,,0.01,Rainwise IP-100,2013-11-14 12:06:00,
2013-11-14 04:11:00,51.1,51.0,30.32,SW,225,1.6,11.0,100,0.00,,,0.01,Rainwise IP-100,2013-11-14 12:11:00,
2013-11-14 04:16:00,51.0,51.0,30.32,West,270,1.6,8.0,100,0.00,,,0.01,Rainwise IP-100,2013-11-14 12:16:00,
2013-11-14 04:21:00,51.0,51.0,30.31,SW,225,1.9,8.0,100,0.00,,,0.01,Rainwise IP-100,2013-11-14 12:21:00,
2013-11-14 04:26:00,51.1,51.0,30.31,SSE,157,1.2,8.0,100,0.00,,,0.01,Rainwise IP-100,2013-11-14 12:26:00,
2013-11-14 04:31:00,51.1,51.0,30.31,WSW,247,3.0,13.0,100,0.00,,,0.01,Rainwise IP-100,2013-11-14 12:31:00,
2013-11-14 04:36:00,51.0,51.0,30.31,WNW,292,2.6,9.0,100,0.00,,,0.01,Rainwise IP-100,2013-11-14 12:36:00,
2013-11-14 04:41:00,51.1,51.0,30.32,WSW,247,3.0,10.0,100,0.00,,,0.01,Rainwise IP-100,2013-11-14 12:41:00,
2013-11-14 04:46:00,51.1,51.0,30.33,WSW,247,3.7,8.0,100,0.00,,,0.01,Rainwise IP-100,2013-11-14 12:46:00,
2013-11-14 04:51:00,51.2,51.0,30.32,SE,135,2.8,9.0,100,0.00,,,0.01,Rainwise IP-100,2013-11-14 12:51:00,
2013-11-14 04:56:00,51.1,51.0,30.32,SW,225,4.2,7.0,100,0.00,,,0.01,Rainwise IP-100,2013-11-14 12:56:00,
2013-11-14 05:01:00,51.0,51.0,30.32,SSE,157,3.5,7.0,100,0.00,,,0.01,Rainwise IP-100,2013-11-14 13:01:00,
2013-11-14 05:06:00,50.9,51.0,30.31,West,270,3.7,7.0,100,0.00,,,0.01,Rainwise IP-100,2013-11-14 13:06:00,
2013-11-14 05:11:00,50.9,51.0,30.32,South,180,1.6,7.0,100,0.00,,,0.01,Rainwise IP-100,2013-11-14 13:11:00,
2013-11-14 05:16:00,50.8,50.0,30.32,SSE,157,1.9,8.0,100,0.00,,,0.01,Rainwise IP-100,2013-11-14 13:16:00,
2013-11-14 05:21:00,50.9,51.0,30.31,SW,225,0.0,9.0,100,0.00,,,0.01,Rainwise IP-100,2013-11-14 13:21:00,
2013-11-14 05:26:00,50.9,51.0,30.31,WSW,247,5.1,10.0,100,0.00,,,0.01,Rainwise IP-100,2013-11-14 13:26:00,
2013-11-14 05:31:00,51.0,51.0,30.32,SW,225,5.1,7.0,100,0.00,,,0.01,Rainwise IP-100,2013-11-14 13:31:00,
2013-11-14 05:36:00,51.1,51.0,30.32,WSW,247,1.4,10.0,100,0.00,,,0.01,Rainwise IP-100,2013-11-14 13:36:00,
2013-11-14 05:41:00,51.0,51.0,30.32,WSW,247,3.5,11.0,100,0.00,,,0.01,Rainwise IP-100,2013-11-14 13:41:00,
2013-11-14 05:46:00,51.0,51.0,30.32,SW,225,4.4,11.0,100,0.00,,,0.01,Rainwise IP-100,2013-11-14 13:46:00,
2013-11-14 05:51:00,51.1,51.0,30.32,SSE,157,2.3,11.0,100,0.00,,,0.01,Rainwise IP-100,2013-11-14 13:51:00,
2013-11-14 05:56:00,51.1,51.0,30.32,SSW,202,4.0,10.0,100,0.00,,,0.01,Rainwise IP-100,2013-11-14 13:56:00,
2013-11-14 06:01:00,51.1,51.0,30.32,SW,225,9.8,12.0,100,0.00,,,0.01,Rainwise IP-100,2013-11-14 14:01:00,
2013-11-14 06:06:00,51.1,51.0,30.31,SSW,202,3.7,13.0,100,0.00,,,0.01,Rainwise IP-100,2013-11-14 14:06:00,
2013-11-14 06:11:00,51.1,51.0,30.32,SE,135,2.1,12.0,100,0.00,,,0.01,Rainwise IP-100,2013-11-14 14:11:00,
2013-11-14 06:16:00,51.1,51.0,30.32,SW,225,11.9,13.0,100,0.00,,,0.01,Rainwise IP-100,2013-11-14 14:16:00,
2013-11-14 06:21:00,51.0,51.0,30.32,SW,225,10.7,15.0,100,0.00,,,0.01,Rainwise IP-100,2013-11-14 14:21:00,
2013-11-14 06:26:00,50.9,51.0,30.32,WSW,247,1.4,13.0,100,0.00,,,0.01,Rainwise IP-100,2013-11-14 14:26:00,
2013-11-14 06:31:00,50.9,51.0,30.32,SW,225,6.1,12.0,100,0.00,,,0.01,Rainwise IP-100,2013-11-14 14:31:00,
2013-11-14 06:36:00,51.0,51.0,30.32,WSW,247,4.9,11.0,100,0.00,,,0.01,Rainwise IP-100,2013-11-14 14:36:00,
2013-11-14 06:41:00,51.0,51.0,30.32,WSW,247,6.1,10.0,100,0.00,,,0.01,Rainwise IP-100,2013-11-14 14:41:00,
2013-11-14 06:46:00,50.9,51.0,30.32,South,180,0.0,11.0,100,0.00,,,0.01,Rainwise IP-100,2013-11-14 14:46:00,
2013-11-14 06:51:00,50.9,51.0,30.31,SW,225,8.2,11.0,100,0.00,,,0.01,Rainwise IP-100,2013-11-14 14:51:00,
2013-11-14 06:53:00,50.9,51.0,30.31,SSW,202,8.4,11.0,100,0.00,,,0.01,Rainwise IP-100,2013-11-14 14:53:00,
2013-11-14 06:58:00,50.9,51.0,30.31,ESE,112,6.5,12.0,100,0.00,,,0.01,Rainwise IP-100,2013-11-14 14:58:00,
2013-11-14 07:03:00,50.9,51.0,30.31,SSW,202,5.4,11.0,100,0.00,,,0.01,Rainwise IP-100,2013-11-14 15:03:00,
2013-11-14 07:08:00,50.9,51.0,30.32,SW,225,7.0,13.0,100,0.00,,,0.01,Rainwise IP-100,2013-11-14 15:08:00,
2013-11-14 07:13:00,51.0,51.0,30.31,SW,225,7.2,12.0,100,0.00,,,0.01,Rainwise IP-100,2013-11-14 15:13:00,
2013-11-14 07:18:00,51.0,51.0,30.31,SW,225,9.8,10.0,100,0.00,,,0.01,Rainwise IP-100,2013-11-14 15:18:00,
2013-11-14 07:23:00,51.1,51.0,30.32,SSW,202,2.1,12.0,100,0.00,,,0.01,Rainwise IP-100,2013-11-14 15:23:00,
2013-11-14 07:28:00,51.0,51.0,30.32,WSW,247,5.6,12.0,100,0.00,,,0.01,Rainwise IP-100,2013-11-14 15:28:00,
2013-11-14 07:33:00,51.0,51.0,30.32,SSW,202,4.9,11.0,100,0.00,,,0.01,Rainwise IP-100,2013-11-14 15:33:00,
2013-11-14 07:38:00,51.0,51.0,30.32,SW,225,9.8,12.0,100,0.00,,,0.01,Rainwise IP-100,2013-11-14 15:38:00,
2013-11-14 07:43:00,51.0,51.0,30.32,SSW,202,4.0,13.0,100,0.00,,,0.01,Rainwise IP-100,2013-11-14 15:43:00,
2013-11-14 07:48:00,50.9,51.0,30.32,SW,225,2.3,11.0,100,0.00,,,0.01,Rainwise IP-100,2013-11-14 15:48:00,
2013-11-14 07:53:00,50.8,50.0,30.33,SSW,202,4.4,9.0,100,0.00,,,0.01,Rainwise IP-100,2013-11-14 15:53:00,
2013-11-14 07:58:00,50.7,50.0,30.33,SW,225,7.9,9.0,100,0.00,,,0.01,Rainwise IP-100,2013-11-14 15:58:00,
2013-11-14 08:03:00,50.6,50.0,30.34,SSW,202,4.4,12.0,100,0.00,,,0.01,Rainwise IP-100,2013-11-14 16:03:00,
2013-11-14 08:08:00,50.4,50.0,30.33,SSW,202,4.4,11.0,100,0.00,,,0.01,Rainwise IP-100,2013-11-14 16:08:00,
2013-11-14 08:13:00,50.5,50.0,30.33,SW,225,5.1,12.0,100,0.00,,,0.01,Rainwise IP-100,2013-11-14 16:13:00,
2013-11-14 08:18:00,50.5,50.0,30.34,SSW,202,4.9,11.0,100,0.00,,,0.01,Rainwise IP-100,2013-11-14 16:18:00,
2013-11-14 08:23:00,50.6,50.0,30.34,WSW,247,0.0,8.0,100,0.00,,,0.01,Rainwise IP-100,2013-11-14 16:23:00,
2013-11-14 08:28:00,50.8,50.0,30.33,SSW,202,4.0,8.0,100,0.00,,,0.01,Rainwise IP-100,2013-11-14 16:28:00,
2013-11-14 08:33:00,50.9,51.0,30.33,SSW,202,3.5,6.0,100,0.00,,,0.01,Rainwise IP-100,2013-11-14 16:33:00,
2013-11-14 08:38:00,50.9,51.0,30.34,WSW,247,1.6,8.0,100,0.00,,,0.01,Rainwise IP-100,2013-11-14 16:38:00,
2013-11-14 08:43:00,51.1,51.0,30.34,SSE,157,2.8,7.0,100,0.00,,,0.01,Rainwise IP-100,2013-11-14 16:43:00,
2013-11-14 08:48:00,51.1,51.0,30.34,SSW,202,5.1,10.0,100,0.00,,,0.01,Rainwise IP-100,2013-11-14 16:48:00,
2013-11-14 08:53:00,51.1,51.0,30.33,SSE,157,0.0,9.0,100,0.00,,,0.01,Rainwise IP-100,2013-11-14 16:53:00,
2013-11-14 08:58:00,51.4,51.0,30.34,SSW,202,2.3,5.0,100,0.00,,,0.01,Rainwise IP-100,2013-11-14 16:58:00,
2013-11-14 09:03:00,51.5,52.0,30.33,WSW,247,0.0,7.0,100,0.00,,,0.01,Rainwise IP-100,2013-11-14 17:03:00,
2013-11-14 09:08:00,51.5,52.0,30.32,SSE,157,4.2,6.0,100,0.00,,,0.01,Rainwise IP-100,2013-11-14 17:08:00,
2013-11-14 09:13:00,51.3,51.0,30.32,SW,225,6.5,8.0,100,0.00,,,0.01,Rainwise IP-100,2013-11-14 17:13:00,
2013-11-14 09:18:00,51.2,51.0,30.32,SSE,157,4.2,8.0,100,0.00,,,0.01,Rainwise IP-100,2013-11-14 17:18:00,
2013-11-14 09:23:00,51.1,51.0,30.33,SSW,202,4.2,8.0,100,0.00,,,0.01,Rainwise IP-100,2013-11-14 17:23:00,
2013-11-14 09:28:00,51.3,51.0,30.33,WSW,247,2.6,8.0,100,0.00,,,0.01,Rainwise IP-100,2013-11-14 17:28:00,
2013-11-14 09:33:00,51.3,51.0,30.33,SW,225,5.8,9.0,100,0.00,,,0.01,Rainwise IP-100,2013-11-14 17:33:00,
2013-11-14 09:38:00,51.3,51.0,30.32,SSE,157,3.7,8.0,100,0.00,,,0.01,Rainwise IP-100,2013-11-14 17:38:00,
2013-11-14 09:43:00,51.3,51.0,30.33,SW,225,6.5,8.0,100,0.00,,,0.01,Rainwise IP-100,2013-11-14 17:43:00,
2013-11-14 09:48:00,51.2,51.0,30.33,SSE,157,5.4,9.0,100,0.00,,,0.01,Rainwise IP-100,2013-11-14 17:48:00,
2013-11-14 09:51:00,51.2,51.0,30.32,South,180,2.1,8.0,100,0.00,,,0.01,Rainwise IP-100,2013-11-14 17:51:00,
2013-11-14 09:56:00,51.3,51.0,30.32,SSE,157,3.3,8.0,100,0.00,,,0.01,Rainwise IP-100,2013-11-14 17:56:00,
2013-11-14 10:01:00,51.6,52.0,30.33,SW,225,7.9,7.9,100,0.00,,,0.01,Rainwise IP-100,2013-11-14 18:01:00,
2013-11-14 10:06:00,51.7,52.0,30.33,SSW,202,3.7,10.0,100,0.00,,,0.01,Rainwise IP-100,2013-11-14 18:06:00,
2013-11-14 10:11:00,51.7,52.0,30.32,SSW,202,8.9,11.0,100,0.00,,,0.01,Rainwise IP-100,2013-11-14 18:11:00,
2013-11-14 10:16:00,51.7,52.0,30.33,SW,225,9.1,9.1,100,0.00,,,0.01,Rainwise IP-100,2013-11-14 18:16:00,
2013-11-14 10:21:00,51.6,52.0,30.33,SSE,157,1.6,11.0,100,0.00,,,0.01,Rainwise IP-100,2013-11-14 18:21:00,
2013-11-14 10:26:00,51.6,52.0,30.32,SSW,202,3.0,9.0,100,0.00,,,0.01,Rainwise IP-100,2013-11-14 18:26:00,
2013-11-14 10:31:00,51.7,52.0,30.32,SE,135,7.2,12.0,100,0.00,,,0.01,Rainwise IP-100,2013-11-14 18:31:00,
2013-11-14 10:36:00,51.6,52.0,30.32,WSW,247,10.5,13.0,100,0.00,,,0.01,Rainwise IP-100,2013-11-14 18:36:00,
2013-11-14 10:41:00,51.6,52.0,30.31,SW,225,5.8,13.0,100,0.00,,,0.01,Rainwise IP-100,2013-11-14 18:41:00,
2013-11-14 10:46:00,51.6,52.0,30.32,ESE,112,2.6,13.0,100,0.00,,,0.01,Rainwise IP-100,2013-11-14 18:46:00,
2013-11-14 10:51:00,51.5,52.0,30.31,WSW,247,0.0,11.0,100,0.00,,,0.01,Rainwise IP-100,2013-11-14 18:51:00,
2013-11-14 10:56:00,51.6,52.0,30.31,SW,225,5.6,10.0,100,0.00,,,0.01,Rainwise IP-100,2013-11-14 18:56:00,
2013-11-14 11:01:00,51.6,52.0,30.30,South,180,1.4,13.0,100,0.00,,,0.01,Rainwise IP-100,2013-11-14 19:01:00,
2013-11-14 11:06:00,51.5,52.0,30.31,NW,315,2.3,12.0,100,0.00,,,0.01,Rainwise IP-100,2013-11-14 19:06:00,
2013-11-14 11:11:00,51.5,52.0,30.31,SW,225,12.4,12.4,100,0.00,,,0.01,Rainwise IP-100,2013-11-14 19:11:00,
2013-11-14 11:16:00,51.6,52.0,30.30,SE,135,4.7,12.0,100,0.00,,,0.01,Rainwise IP-100,2013-11-14 19:16:00,
2013-11-14 11:21:00,51.4,51.0,30.30,SW,225,3.3,12.0,100,0.00,,,0.01,Rainwise IP-100,2013-11-14 19:21:00,
2013-11-14 11:26:00,51.3,51.0,30.30,WSW,247,7.5,9.0,100,0.00,,,0.01,Rainwise IP-100,2013-11-14 19:26:00,
2013-11-14 11:31:00,51.6,52.0,30.29,South,180,3.5,10.0,100,0.00,,,0.01,Rainwise IP-100,2013-11-14 19:31:00,
2013-11-14 11:36:00,51.9,52.0,30.29,SSW,202,3.7,7.0,100,0.00,,,0.01,Rainwise IP-100,2013-11-14 19:36:00,
2013-11-14 11:41:00,51.9,52.0,30.29,NNE,22,0.0,10.0,100,0.00,,,0.01,Rainwise IP-100,2013-11-14 19:41:00,
2013-11-14 11:46:00,52.0,52.0,30.28,SSW,202,3.3,9.0,100,0.00,,,0.01,Rainwise IP-100,2013-11-14 19:46:00,
2013-11-14 11:51:00,51.9,52.0,30.27,ESE,112,3.3,9.0,100,0.00,,,0.01,Rainwise IP-100,2013-11-14 19:51:00,
2013-11-14 11:56:00,51.9,52.0,30.27,WSW,247,2.6,8.0,100,0.00,,,0.01,Rainwise IP-100,2013-11-14 19:56:00,
2013-11-14 12:01:00,51.9,52.0,30.28,SSW,202,6.1,10.0,100,0.00,,,0.01,Rainwise IP-100,2013-11-14 20:01:00,
2013-11-14 12:06:00,51.8,52.0,30.27,West,270,1.6,12.0,100,0.00,,,0.01,Rainwise IP-100,2013-11-14 20:06:00,
2013-11-14 12:11:00,51.7,52.0,30.27,WSW,247,7.5,9.0,100,0.00,,,0.01,Rainwise IP-100,2013-11-14 20:11:00,
2013-11-14 12:16:00,51.7,52.0,30.27,SW,225,7.0,9.0,100,0.00,,,0.01,Rainwise IP-100,2013-11-14 20:16:00,
2013-11-14 12:21:00,51.7,52.0,30.27,West,270,2.8,12.0,100,0.00,,,0.01,Rainwise IP-100,2013-11-14 20:21:00,
2013-11-14 12:26:00,51.6,52.0,30.27,SE,135,0.0,12.0,100,0.00,,,0.01,Rainwise IP-100,2013-11-14 20:26:00,
2013-11-14 12:31:00,51.6,52.0,30.27,West,270,0.0,9.0,100,0.00,,,0.01,Rainwise IP-100,2013-11-14 20:31:00,
2013-11-14 12:36:00,51.7,52.0,30.27,SSW,202,4.4,8.0,100,0.00,,,0.01,Rainwise IP-100,2013-11-14 20:36:00,
2013-11-14 12:41:00,51.8,52.0,30.27,SSE,157,1.2,7.0,100,0.00,,,0.01,Rainwise IP-100,2013-11-14 20:41:00,
2013-11-14 12:46:00,51.6,52.0,30.27,WSW,247,0.0,10.0,100,0.00,,,0.01,Rainwise IP-100,2013-11-14 20:46:00,
2013-11-14 12:51:00,51.6,52.0,30.26,WSW,247,3.0,7.0,100,0.00,,,0.01,Rainwise IP-100,2013-11-14 20:51:00,
2013-11-14 12:56:00,51.8,52.0,30.26,West,270,4.7,10.0,100,0.00,,,0.01,Rainwise IP-100,2013-11-14 20:56:00,
2013-11-14 13:01:00,51.9,52.0,30.26,WSW,247,4.0,9.0,100,0.00,,,0.01,Rainwise IP-100,2013-11-14 21:01:00,
2013-11-14 13:06:00,52.2,52.0,30.26,SW,225,1.4,11.0,100,0.00,,,0.01,Rainwise IP-100,2013-11-14 21:06:00,
2013-11-14 13:11:00,52.3,52.0,30.25,SSW,202,7.5,9.0,100,0.00,,,0.01,Rainwise IP-100,2013-11-14 21:11:00,
2013-11-14 13:16:00,52.2,52.0,30.25,SW,225,7.0,10.0,100,0.00,,,0.01,Rainwise IP-100,2013-11-14 21:16:00,
2013-11-14 13:21:00,52.3,52.0,30.25,WSW,247,1.4,8.0,100,0.00,,,0.01,Rainwise IP-100,2013-11-14 21:21:00,
2013-11-14 13:26:00,52.6,53.0,30.25,SW,225,4.4,11.0,100,0.00,,,0.01,Rainwise IP-100,2013-11-14 21:26:00,
2013-11-14 13:31:00,52.8,53.0,30.25,NW,315,3.3,10.0,100,0.00,,,0.01,Rainwise IP-100,2013-11-14 21:31:00,
2013-11-14 13:36:00,53.1,53.0,30.24,NW,315,2.6,10.0,100,0.00,,,0.01,Rainwise IP-100,2013-11-14 21:36:00,
2013-11-14 13:41:00,53.3,53.0,30.24,NNW,337,1.2,11.0,100,0.00,,,0.01,Rainwise IP-100,2013-11-14 21:41:00,
2013-11-14 13:46:00,53.4,53.0,30.24,SSE,157,3.0,9.0,100,0.00,,,0.01,Rainwise IP-100,2013-11-14 21:46:00,
2013-11-14 13:51:00,53.7,53.0,30.24,WNW,292,4.0,9.0,100,0.00,,,0.01,Rainwise IP-100,2013-11-14 21:51:00,
2013-11-14 13:56:00,54.0,54.0,30.23,SW,225,7.5,11.0,100,0.00,,,0.01,Rainwise IP-100,2013-11-14 21:56:00,
2013-11-14 14:01:00,54.1,54.0,30.23,North,360,0.0,11.0,100,0.00,,,0.01,Rainwise IP-100,2013-11-14 22:01:00,
2013-11-14 14:06:00,54.2,54.0,30.23,WSW,247,4.0,11.0,100,0.00,,,0.01,Rainwise IP-100,2013-11-14 22:06:00,
2013-11-14 14:11:00,54.4,54.0,30.23,WNW,292,3.0,7.0,99,0.00,,,0.01,Rainwise IP-100,2013-11-14 22:11:00,
2013-11-14 14:16:00,54.5,54.0,30.23,SW,225,3.0,9.0,98,0.00,,,0.01,Rainwise IP-100,2013-11-14 22:16:00,
2013-11-14 14:21:00,54.8,54.0,30.23,NW,315,0.0,10.0,97,0.00,,,0.01,Rainwise IP-100,2013-11-14 22:21:00,
2013-11-14 14:26:00,55.0,54.0,30.22,SE,135,1.2,11.0,96,0.00,,,0.01,Rainwise IP-100,2013-11-14 22:26:00,
2013-11-14 14:31:00,54.8,53.0,30.23,SSE,157,1.9,15.0,95,0.00,,,0.01,Rainwise IP-100,2013-11-14 22:31:00,
2013-11-14 14:36:00,54.7,53.0,30.22,West,270,5.6,12.0,95,0.00,,,0.01,Rainwise IP-100,2013-11-14 22:36:00,
2013-11-14 14:41:00,54.6,53.0,30.22,WNW,292,2.1,12.0,94,0.00,,,0.01,Rainwise IP-100,2013-11-14 22:41:00,
2013-11-14 14:46:00,54.6,53.0,30.22,NW,315,2.8,14.0,94,0.00,,,0.01,Rainwise IP-100,2013-11-14 22:46:00,
2013-11-14 14:51:00,54.6,53.0,30.21,WNW,292,0.0,14.0,94,0.00,,,0.01,Rainwise IP-100,2013-11-14 22:51:00,
2013-11-14 14:56:00,54.6,53.0,30.21,WNW,292,4.2,16.0,94,0.00,,,0.01,Rainwise IP-100,2013-11-14 22:56:00,
2013-11-14 15:01:00,54.6,53.0,30.21,SSW,202,4.4,12.0,94,0.00,,,0.01,Rainwise IP-100,2013-11-14 23:01:00,
2013-11-14 15:06:00,54.6,53.0,30.21,NNW,337,1.9,11.0,93,0.00,,,0.01,Rainwise IP-100,2013-11-14 23:06:00,
2013-11-14 15:11:00,54.7,53.0,30.21,West,270,3.3,16.0,93,0.00,,,0.01,Rainwise IP-100,2013-11-14 23:11:00,
2013-11-14 15:16:00,54.8,53.0,30.21,WSW,247,2.6,10.0,92,0.00,,,0.01,Rainwise IP-100,2013-11-14 23:16:00,
2013-11-14 15:21:00,55.0,53.0,30.20,West,270,10.3,12.0,92,0.00,,,0.01,Rainwise IP-100,2013-11-14 23:21:00,
2013-11-14 15:26:00,54.9,53.0,30.21,WNW,292,8.4,15.0,91,0.00,,,0.01,Rainwise IP-100,2013-11-14 23:26:00,
2013-11-14 15:31:00,54.6,52.0,30.20,NNW,337,3.5,14.0,91,0.00,,,0.01,Rainwise IP-100,2013-11-14 23:31:00,
2013-11-14 15:36:00,54.3,51.0,30.20,WNW,292,7.9,12.0,91,0.00,,,0.01,Rainwise IP-100,2013-11-14 23:36:00,
2013-11-14 15:41:00,54.1,51.0,30.20,WNW,292,4.2,11.0,91,0.00,,,0.01,Rainwise IP-100,2013-11-14 23:41:00,
2013-11-14 15:46:00,53.9,51.0,30.20,West,270,2.1,11.0,91,0.00,,,0.01,Rainwise IP-100,2013-11-14 23:46:00,
2013-11-14 15:51:00,53.8,51.0,30.20,WSW,247,2.6,4.0,92,0.00,,,0.01,Rainwise IP-100,2013-11-14 23:51:00,
2013-11-14 15:56:00,53.9,52.0,30.20,NE,45,0.0,4.0,92,0.00,,,0.01,Rainwise IP-100,2013-11-14 23:56:00,
2013-11-14 16:01:00,53.9,52.0,30.19,SSW,202,2.8,4.0,92,0.00,,,0.01,Rainwise IP-100,2013-11-15 00:01:00,
2013-11-14 16:06:00,53.8,51.0,30.19,South,180,3.3,7.0,92,0.00,,,0.01,Rainwise IP-100,2013-11-15 00:06:00,
2013-11-14 16:11:00,53.7,51.0,30.19,South,180,2.3,8.0,92,0.00,,,0.01,Rainwise IP-100,2013-11-15 00:11:00,
2013-11-14 16:16:00,53.6,51.0,30.19,South,180,0.0,8.0,92,0.00,,,0.01,Rainwise IP-100,2013-11-15 00:16:00,
2013-11-14 16:21:00,53.6,51.0,30.19,ESE,112,4.4,6.0,92,0.00,,,0.01,Rainwise IP-100,2013-11-15 00:21:00,
2013-11-14 16:26:00,53.5,51.0,30.19,SSE,157,1.4,6.0,92,0.00,,,0.01,Rainwise IP-100,2013-11-15 00:26:00,
2013-11-14 16:31:00,53.4,51.0,30.19,SSW,202,2.1,5.0,92,0.00,,,0.01,Rainwise IP-100,2013-11-15 00:31:00,
2013-11-14 16:36:00,53.4,51.0,30.19,ESE,112,1.4,3.0,92,0.00,,,0.01,Rainwise IP-100,2013-11-15 00:36:00,
2013-11-14 16:41:00,53.3,50.0,30.19,WNW,292,2.8,6.0,92,0.00,,,0.01,Rainwise IP-100,2013-11-15 00:41:00,
2013-11-14 16:46:00,53.2,50.0,30.19,WNW,292,0.0,9.0,92,0.00,,,0.01,Rainwise IP-100,2013-11-15 00:46:00,
2013-11-14 16:51:00,53.0,50.0,30.18,SSW,202,3.5,8.0,92,0.00,,,0.01,Rainwise IP-100,2013-11-15 00:51:00,
2013-11-14 16:56:00,53.0,50.0,30.18,SSE,157,2.8,6.0,93,0.00,,,0.01,Rainwise IP-100,2013-11-15 00:56:00,
2013-11-14 17:01:00,52.8,50.0,30.18,ESE,112,1.2,6.0,93,0.00,,,0.01,Rainwise IP-100,2013-11-15 01:01:00,
2013-11-14 17:06:00,52.7,50.0,30.18,WSW,247,1.6,3.0,93,0.00,,,0.01,Rainwise IP-100,2013-11-15 01:06:00,
2013-11-14 17:11:00,52.6,51.0,30.17,NNE,22,1.4,3.0,94,0.00,,,0.01,Rainwise IP-100,2013-11-15 01:11:00,
2013-11-14 17:16:00,52.5,51.0,30.17,SSE,157,0.0,3.0,94,0.00,,,0.01,Rainwise IP-100,2013-11-15 01:16:00,
2013-11-14 17:21:00,52.6,51.0,30.18,East,90,3.3,5.0,94,0.00,,,0.01,Rainwise IP-100,2013-11-15 01:21:00,
2013-11-14 17:26:00,52.6,50.0,30.18,ENE,67,1.2,4.0,93,0.00,,,0.01,Rainwise IP-100,2013-11-15 01:26:00,
2013-11-14 17:31:00,52.6,50.0,30.18,NW,315,7.0,10.0,93,0.00,,,0.01,Rainwise IP-100,2013-11-15 01:31:00,
2013-11-14 17:36:00,52.5,50.0,30.18,WNW,292,4.9,9.0,93,0.00,,,0.01,Rainwise IP-100,2013-11-15 01:36:00,
2013-11-14 17:41:00,52.4,50.0,30.18,WNW,292,4.2,10.0,93,0.00,,,0.01,Rainwise IP-100,2013-11-15 01:41:00,
2013-11-14 17:46:00,52.3,50.0,30.18,NNE,22,2.6,10.0,93,0.00,,,0.01,Rainwise IP-100,2013-11-15 01:46:00,
2013-11-14 17:51:00,52.2,50.0,30.18,WNW,292,3.5,4.0,93,0.00,,,0.01,Rainwise IP-100,2013-11-15 01:51:00,
2013-11-14 17:56:00,52.1,50.0,30.17,WSW,247,6.1,6.1,93,0.00,,,0.01,Rainwise IP-100,2013-11-15 01:56:00,
2013-11-14 18:01:00,52.1,50.0,30.18,WNW,292,7.5,9.0,94,0.00,,,0.01,Rainwise IP-100,2013-11-15 02:01:00,
2013-11-14 18:06:00,52.0,50.0,30.17,WNW,292,7.0,13.0,94,0.00,,,0.01,Rainwise IP-100,2013-11-15 02:06:00,
2013-11-14 18:11:00,52.0,50.0,30.17,WNW,292,5.1,13.0,94,0.00,,,0.01,Rainwise IP-100,2013-11-15 02:11:00,
2013-11-14 18:16:00,51.9,50.0,30.16,West,270,7.2,12.0,94,0.00,,,0.01,Rainwise IP-100,2013-11-15 02:16:00,
2013-11-14 18:21:00,51.9,50.0,30.17,WNW,292,3.0,16.0,94,0.00,,,0.01,Rainwise IP-100,2013-11-15 02:21:00,
2013-11-14 18:26:00,51.9,50.0,30.17,NW,315,2.3,14.0,94,0.00,,,0.01,Rainwise IP-100,2013-11-15 02:26:00,
2013-11-14 18:31:00,51.8,50.0,30.17,WNW,292,10.5,15.0,94,0.00,,,0.01,Rainwise IP-100,2013-11-15 02:31:00,
2013-11-14 18:36:00,51.8,50.0,30.16,WNW,292,14.7,17.0,94,0.00,,,0.01,Rainwise IP-100,2013-11-15 02:36:00,
2013-11-14 18:41:00,51.8,50.0,30.16,WNW,292,8.9,21.0,94,0.00,,,0.01,Rainwise IP-100,2013-11-15 02:41:00,
2013-11-14 18:46:00,51.8,50.0,30.16,WNW,292,7.9,19.0,94,0.00,,,0.01,Rainwise IP-100,2013-11-15 02:46:00,
2013-11-14 18:51:00,51.8,50.0,30.16,WNW,292,9.8,18.0,94,0.00,,,0.01,Rainwise IP-100,2013-11-15 02:51:00,
2013-11-14 18:53:00,51.8,50.0,30.16,WNW,292,7.2,18.0,94,0.00,,,0.01,Rainwise IP-100,2013-11-15 02:53:00,
2013-11-14 18:58:00,51.8,50.0,30.16,WNW,292,8.4,21.0,93,0.00,,,0.01,Rainwise IP-100,2013-11-15 02:58:00,
2013-11-14 19:03:00,51.9,50.0,30.16,NW,315,5.6,20.0,93,0.00,,,0.01,Rainwise IP-100,2013-11-15 03:03:00,
2013-11-14 19:08:00,51.8,50.0,30.16,WNW,292,15.6,18.0,93,0.00,,,0.01,Rainwise IP-100,2013-11-15 03:08:00,
2013-11-14 19:13:00,51.9,50.0,30.15,WNW,292,12.8,22.0,92,0.00,,,0.01,Rainwise IP-100,2013-11-15 03:13:00,
2013-11-14 19:18:00,51.9,50.0,30.15,NNW,337,14.0,22.0,92,0.00,,,0.01,Rainwise IP-100,2013-11-15 03:18:00,
2013-11-14 19:23:00,52.0,49.0,30.16,WNW,292,15.2,22.0,91,0.00,,,0.01,Rainwise IP-100,2013-11-15 03:23:00,
2013-11-14 19:28:00,52.1,49.0,30.15,WNW,292,14.7,19.0,91,0.00,,,0.01,Rainwise IP-100,2013-11-15 03:28:00,
2013-11-14 19:33:00,52.1,49.0,30.15,WNW,292,15.2,20.0,91,0.00,,,0.01,Rainwise IP-100,2013-11-15 03:33:00,
2013-11-14 19:38:00,52.1,49.0,30.15,WNW,292,17.3,21.0,90,0.00,,,0.01,Rainwise IP-100,2013-11-15 03:38:00,
2013-11-14 19:43:00,52.2,49.0,30.15,West,270,17.7,29.0,90,0.00,,,0.01,Rainwise IP-100,2013-11-15 03:43:00,
2013-11-14 19:48:00,52.2,49.0,30.15,WNW,292,16.3,21.0,90,0.00,,,0.01,Rainwise IP-100,2013-11-15 03:48:00,
2013-11-14 19:53:00,52.1,49.0,30.14,West,270,17.3,20.0,90,0.00,,,0.01,Rainwise IP-100,2013-11-15 03:53:00,
2013-11-14 19:58:00,52.1,49.0,30.15,WSW,247,13.8,20.0,90,0.00,,,0.01,Rainwise IP-100,2013-11-15 03:58:00,
2013-11-14 20:03:00,52.2,49.0,30.15,WNW,292,16.3,18.0,90,0.00,,,0.01,Rainwise IP-100,2013-11-15 04:03:00,
2013-11-14 20:08:00,52.1,49.0,30.15,West,270,11.7,23.0,90,0.00,,,0.01,Rainwise IP-100,2013-11-15 04:08:00,
2013-11-14 20:13:00,52.0,49.0,30.16,West,270,15.9,22.0,90,0.00,,,0.01,Rainwise IP-100,2013-11-15 04:13:00,
2013-11-14 20:18:00,52.0,49.0,30.16,West,270,17.5,20.0,90,0.00,,,0.01,Rainwise IP-100,2013-11-15 04:18:00,
2013-11-14 20:23:00,52.0,49.0,30.15,West,270,13.3,20.0,90,0.00,,,0.01,Rainwise IP-100,2013-11-15 04:23:00,
2013-11-14 20:28:00,52.0,49.0,30.16,SW,225,9.3,21.0,90,0.00,,,0.01,Rainwise IP-100,2013-11-15 04:28:00,
2013-11-14 20:33:00,52.0,49.0,30.16,NNW,337,7.2,16.0,90,0.00,,,0.01,Rainwise IP-100,2013-11-15 04:33:00,
2013-11-14 20:38:00,52.0,49.0,30.15,West,270,15.4,22.0,89,0.00,,,0.01,Rainwise IP-100,2013-11-15 04:38:00,
2013-11-14 20:43:00,52.0,49.0,30.15,West,270,19.4,24.0,89,0.00,,,0.01,Rainwise IP-100,2013-11-15 04:43:00,
2013-11-14 20:48:00,52.0,49.0,30.14,West,270,11.9,21.0,89,0.00,,,0.01,Rainwise IP-100,2013-11-15 04:48:00,
2013-11-14 20:53:00,51.9,49.0,30.14,WNW,292,18.2,24.0,89,0.00,,,0.01,Rainwise IP-100,2013-11-15 04:53:00,
2013-11-14 20:58:00,51.9,49.0,30.15,WSW,247,11.4,21.0,89,0.00,,,0.01,Rainwise IP-100,2013-11-15 04:58:00,
2013-11-14 21:01:00,51.9,49.0,30.15,WNW,292,10.5,22.0,89,0.00,,,0.01,Rainwise IP-100,2013-11-15 05:01:00,
2013-11-14 21:06:00,51.9,49.0,30.14,West,270,13.3,20.0,89,0.00,,,0.01,Rainwise IP-100,2013-11-15 05:06:00,
2013-11-14 21:11:00,51.9,48.0,30.14,WSW,247,7.5,20.0,88,0.00,,,0.01,Rainwise IP-100,2013-11-15 05:11:00,
2013-11-14 21:16:00,51.9,48.0,30.14,West,270,16.6,21.0,88,0.00,,,0.01,Rainwise IP-100,2013-11-15 05:16:00,
2013-11-14 21:21:00,52.0,48.0,30.14,WNW,292,12.1,19.0,88,0.00,,,0.01,Rainwise IP-100,2013-11-15 05:21:00,
2013-11-14 21:26:00,52.1,48.0,30.14,NW,315,8.9,18.0,88,0.00,,,0.01,Rainwise IP-100,2013-11-15 05:26:00,
2013-11-14 21:31:00,52.0,48.0,30.14,WNW,292,11.7,21.0,88,0.00,,,0.01,Rainwise IP-100,2013-11-15 05:31:00,
2013-11-14 21:36:00,51.8,48.0,30.13,WNW,292,15.2,22.0,88,0.00,,,0.01,Rainwise IP-100,2013-11-15 05:36:00,
2013-11-14 21:41:00,51.7,49.0,30.14,WSW,247,14.5,19.0,89,0.00,,,0.01,Rainwise IP-100,2013-11-15 05:41:00,
2013-11-14 21:46:00,51.6,49.0,30.15,WNW,292,8.6,20.0,89,0.00,,,0.01,Rainwise IP-100,2013-11-15 05:46:00,
2013-11-14 21:51:00,51.5,49.0,30.14,NW,315,10.0,20.0,90,0.00,,,0.01,Rainwise IP-100,2013-11-15 05:51:00,
2013-11-14 21:56:00,51.5,49.0,30.15,WNW,292,18.7,21.0,90,0.00,,,0.01,Rainwise IP-100,2013-11-15 05:56:00,
2013-11-14 22:01:00,51.4,48.0,30.14,WNW,292,12.4,22.0,90,0.00,,,0.01,Rainwise IP-100,2013-11-15 06:01:00,
2013-11-14 22:06:00,51.4,48.0,30.14,WNW,292,10.7,21.0,90,0.00,,,0.01,Rainwise IP-100,2013-11-15 06:06:00,
2013-11-14 22:11:00,51.3,49.0,30.14,WNW,292,12.1,22.0,91,0.00,,,0.01,Rainwise IP-100,2013-11-15 06:11:00,
2013-11-14 22:16:00,51.3,49.0,30.14,WNW,292,19.4,21.0,91,0.00,,,0.01,Rainwise IP-100,2013-11-15 06:16:00,
2013-11-14 22:21:00,51.3,48.0,30.14,West,270,9.8,19.0,90,0.00,,,0.01,Rainwise IP-100,2013-11-15 06:21:00,
2013-11-14 22:26:00,51.3,48.0,30.14,WNW,292,9.3,20.0,90,0.00,,,0.01,Rainwise IP-100,2013-11-15 06:26:00,
2013-11-14 22:31:00,51.4,48.0,30.14,West,270,13.8,21.0,90,0.00,,,0.01,Rainwise IP-100,2013-11-15 06:31:00,
2013-11-14 22:36:00,51.3,48.0,30.13,WSW,247,8.9,19.0,90,0.00,,,0.01,Rainwise IP-100,2013-11-15 06:36:00,
2013-11-14 22:41:00,51.3,48.0,30.14,West,270,8.6,18.0,90,0.00,,,0.01,Rainwise IP-100,2013-11-15 06:41:00,
2013-11-14 22:46:00,51.2,48.0,30.14,NNW,337,6.8,16.0,90,0.00,,,0.01,Rainwise IP-100,2013-11-15 06:46:00,
2013-11-14 22:51:00,51.2,48.0,30.14,WSW,247,6.3,16.0,90,0.00,,,0.01,Rainwise IP-100,2013-11-15 06:51:00,
2013-11-14 22:56:00,51.1,48.0,30.14,WNW,292,9.3,14.0,90,0.00,,,0.01,Rainwise IP-100,2013-11-15 06:56:00,
2013-11-14 23:01:00,51.1,48.0,30.14,WSW,247,14.2,18.0,90,0.00,,,0.01,Rainwise IP-100,2013-11-15 07:01:00,
2013-11-14 23:06:00,51.1,48.0,30.14,WNW,292,13.5,19.0,90,0.00,,,0.01,Rainwise IP-100,2013-11-15 07:06:00,
2013-11-14 23:11:00,51.1,48.0,30.13,WNW,292,14.5,18.0,90,0.00,,,0.01,Rainwise IP-100,2013-11-15 07:11:00,
2013-11-14 23:16:00,51.1,48.0,30.14,WNW,292,19.1,21.0,90,0.00,,,0.01,Rainwise IP-100,2013-11-15 07:16:00,
2013-11-14 23:21:00,50.9,48.0,30.13,West,270,9.6,22.0,90,0.00,,,0.01,Rainwise IP-100,2013-11-15 07:21:00,
2013-11-14 23:26:00,50.9,49.0,30.13,WSW,247,9.3,18.0,91,0.00,,,0.01,Rainwise IP-100,2013-11-15 07:26:00,
2013-11-14 23:31:00,50.9,49.0,30.14,NW,315,12.6,21.0,91,0.00,,,0.01,Rainwise IP-100,2013-11-15 07:31:00,
2013-11-14 23:36:00,50.8,48.0,30.14,West,270,14.7,17.0,91,0.00,,,0.01,Rainwise IP-100,2013-11-15 07:36:00,
2013-11-14 23:41:00,50.7,48.0,30.14,WNW,292,8.2,18.0,91,0.00,,,0.01,Rainwise IP-100,2013-11-15 07:41:00,
2013-11-14 23:46:00,50.7,48.0,30.13,WNW,292,11.4,13.0,91,0.00,,,0.01,Rainwise IP-100,2013-11-15 07:46:00,
2013-11-14 23:51:00,50.6,48.0,30.14,WNW,292,13.8,14.0,91,0.00,,,0.01,Rainwise IP-100,2013-11-15 07:51:00,
2013-11-14 23:56:00,50.6,48.0,30.14,WNW,292,5.1,20.0,91,0.00,,,0.01,Rainwise IP-100,2013-11-15 07:56:00,